Location: Unnamed
(52.1820°N, 21.0059°E)
Time: 11:14:04
(UTC+01:00)

ISS - Visible Passes

Search period start: 09 December 2025 00:00
Search period end: 19 December 2025 00:00
Orbit: 416 x 421 km, 51.6° (Epoch: 08 December)

Date Brightness Start Highest point End Pass type
(mag) Time Alt. Az. Time Alt. Az. Time Alt. Az.
12 Dec -0.5 06:28:49 10° S 06:30:43 14° SE 06:32:38 10° ESE visible
14 Dec -1.5 06:28:19 10° SSW 06:31:14 27° SSE 06:34:10 10° E visible
15 Dec -1.1 05:40:53 10° SSW 05:43:25 20° SE 05:45:57 10° E visible
16 Dec -0.8 04:53:50 10° S 04:55:37 14° SE 04:57:27 10° ESE visible
16 Dec -2.7 06:28:32 10° SW 06:31:48 47° SSE 06:35:04 10° E visible
17 Dec -2.3 05:41:25 15° SW 05:43:52 36° SSE 05:47:00 10° E visible
18 Dec -1.9 04:55:46 26° SSE 04:55:55 27° SSE 04:58:49 10° E visible
18 Dec -3.5 06:29:01 10° WSW 06:32:23 71° SSE 06:35:46 10° E visible
